When you browse on this site, cookies collect data to enhance your experience and personalize the content and advertising you see.
Visit our Privacy Policy to learn more. By continuing to use the site, you agree to this use of cookies and data.
  • In Denmark
  • List of Countries
  • For 7 days
  • Water Temperature
  • Satellite Maps
  • Weather Map
  • Weather Widgets
  • user-avatar
    Login

    Hourly Weather Szczawina

    Today, 23 July, Tuesday

    Time Temperature Precipitation Wind Pressure Humidity
    00:00 +17°C° 0.1 mm 0 mps 723 mmHg 86%
    01:00 +16°C° 0.1 mm 0 mps 722 mmHg 90%
    02:00 +16°C° 0 mm 0 mps 722 mmHg 89%
    03:00 +16°C° 0 mm 0 mps 722 mmHg 89%
    04:00 +16°C° 0 mm 0 mps 722 mmHg 89%
    05:00 +19°C° 0 mm 1 mps 722 mmHg 86%
    06:00 +20°C° 0 mm 1 mps 722 mmHg 84%
    07:00 +19°C° 0 mm 2 mps 723 mmHg 81%
    08:00 +20°C° 0 mm 2 mps 723 mmHg 77%
    09:00 +21°C° 0 mm 2 mps 723 mmHg 73%
    10:00 +22°C° 0 mm 3 mps 723 mmHg 69%
    11:00 +24°C° 0 mm 3 mps 723 mmHg 66%
    12:00 +25°C° 0 mm 3 mps 723 mmHg 64%
    13:00 +26°C° 0 mm 3 mps 722 mmHg 61%
    14:00 +26°C° 0.1 mm 4 mps 722 mmHg 63%
    15:00 +26°C° 0.1 mm 4 mps 722 mmHg 65%
    16:00 +26°C° 0.1 mm 4 mps 722 mmHg 67%
    17:00 +25°C° 0 mm 3 mps 722 mmHg 72%
    18:00 +24°C° 0 mm 2 mps 721 mmHg 77%
    19:00 +23°C° 0 mm 1 mps 721 mmHg 82%
    20:00 +21°C° 0 mm 1 mps 721 mmHg 84%
    21:00 +20°C° 0 mm 1 mps 721 mmHg 87%
    22:00 +17°C° 0 mm 0 mps 721 mmHg 90%
    23:00 +17°C° 0 mm 0 mps 721 mmHg 91%

    Tomorrow, 24 July, Wednesday

    Time Temperature Precipitation Wind Pressure Humidity
    00:00 +16°C° 0 mm 0 mps 721 mmHg 91%
    01:00 +16°C° 0 mm 0 mps 721 mmHg 92%
    02:00 +16°C° 0 mm 0 mps 721 mmHg 92%
    03:00 +16°C° 0 mm 0 mps 720 mmHg 92%
    04:00 +15°C° 0 mm 0 mps 720 mmHg 93%
    05:00 +17°C° 0 mm 0 mps 720 mmHg 89%
    06:00 +18°C° 0 mm 0 mps 721 mmHg 85%
    07:00 +22°C° 0 mm 1 mps 721 mmHg 81%
    08:00 +23°C° 0 mm 1 mps 721 mmHg 74%
    09:00 +24°C° 0 mm 1 mps 721 mmHg 68%
    10:00 +26°C° 0 mm 2 mps 721 mmHg 61%
    11:00 +26°C° 0 mm 2 mps 721 mmHg 59%
    12:00 +27°C° 0 mm 2 mps 721 mmHg 57%
    13:00 +27°C° 0 mm 3 mps 721 mmHg 54%
    14:00 +27°C° 0 mm 3 mps 721 mmHg 56%
    15:00 +27°C° 0 mm 3 mps 721 mmHg 57%
    16:00 +27°C° 0 mm 3 mps 721 mmHg 58%
    17:00 +26°C° 0 mm 2 mps 720 mmHg 65%
    18:00 +24°C° 0 mm 2 mps 720 mmHg 71%
    19:00 +23°C° 0 mm 1 mps 720 mmHg 77%
    20:00 +22°C° 0 mm 1 mps 720 mmHg 81%
    21:00 +20°C° 0 mm 1 mps 720 mmHg 84%
    22:00 +17°C° 0 mm 0 mps 721 mmHg 87%
    23:00 +17°C° 0 mm 0 mps 721 mmHg 87%

    Day after tomorrow, 25 July, Thursday

    Time Temperature Precipitation Wind Pressure Humidity
    00:00 +16°C° 0 mm 0 mps 721 mmHg 88%
    01:00 +16°C° 0 mm 0 mps 721 mmHg 88%
    02:00 +16°C° 0 mm 0 mps 720 mmHg 89%
    03:00 +16°C° 0 mm 0 mps 720 mmHg 89%
    04:00 +16°C° 0 mm 0 mps 720 mmHg 89%
    05:00 +17°C° 0 mm 0 mps 721 mmHg 85%
    06:00 +19°C° 0 mm 0 mps 721 mmHg 80%
    07:00 +21°C° 0 mm 0 mps 721 mmHg 75%
    08:00 +22°C° 0 mm 0 mps 721 mmHg 70%
    09:00 +25°C° 0 mm 1 mps 721 mmHg 64%
    10:00 +27°C° 0 mm 1 mps 722 mmHg 59%
    11:00 +27°C° 0 mm 1 mps 721 mmHg 56%
    12:00 +28°C° 0 mm 2 mps 721 mmHg 54%
    13:00 +28°C° 0 mm 2 mps 721 mmHg 51%
    14:00 +28°C° 0 mm 2 mps 721 mmHg 52%
    15:00 +28°C° 0 mm 2 mps 720 mmHg 53%
    16:00 +28°C° 0 mm 2 mps 720 mmHg 54%
    17:00 +27°C° 0 mm 2 mps 720 mmHg 60%
    18:00 +25°C° 0 mm 2 mps 719 mmHg 66%
    19:00 +24°C° 0 mm 1 mps 719 mmHg 72%
    20:00 +22°C° 0 mm 1 mps 719 mmHg 76%
    21:00 +21°C° 0 mm 1 mps 719 mmHg 80%
    22:00 +20°C° 0 mm 1 mps 719 mmHg 84%
    23:00 +19°C° 0 mm 1 mps 719 mmHg 85%

    26 July, Friday

    Time Temperature Precipitation Wind Pressure Humidity
    00:00 +19°C° 0 mm 1 mps 719 mmHg 86%
    01:00 +17°C° 0 mm 0 mps 719 mmHg 87%
    02:00 +18°C° 0 mm 1 mps 719 mmHg 88%
    03:00 +18°C° 0 mm 1 mps 718 mmHg 89%
    04:00 +18°C° 0 mm 1 mps 718 mmHg 90%
    05:00 +19°C° 0 mm 1 mps 718 mmHg 86%
    06:00 +20°C° 0 mm 1 mps 718 mmHg 83%
    07:00 +21°C° 0 mm 1 mps 718 mmHg 79%
    08:00 +21°C° 0.1 mm 2 mps 719 mmHg 75%
    09:00 +22°C° 0.1 mm 3 mps 719 mmHg 70%
    10:00 +23°C° 0.1 mm 4 mps 719 mmHg 65%
    11:00 +23°C° 0 mm 4 mps 718 mmHg 61%
    12:00 +25°C° 0 mm 4 mps 718 mmHg 57%
    13:00 +25°C° 0 mm 4 mps 718 mmHg 52%
    14:00 +25°C° 0 mm 4 mps 717 mmHg 54%
    15:00 +25°C° 0 mm 4 mps 717 mmHg 56%
    16:00 +23°C° 0 mm 5 mps 717 mmHg 57%
    17:00 +22°C° 0 mm 4 mps 717 mmHg 63%
    18:00 +21°C° 0 mm 3 mps 717 mmHg 69%
    19:00 +20°C° 0 mm 3 mps 716 mmHg 74%
    20:00 +19°C° 0 mm 2 mps 716 mmHg 78%
    21:00 +17°C° 0 mm 2 mps 716 mmHg 82%
    22:00 +16°C° 0 mm 2 mps 716 mmHg 86%
    23:00 +16°C° 0 mm 2 mps 716 mmHg 88%

    27 July, Saturday

    Time Temperature Precipitation Wind Pressure Humidity
    00:00 +15°C° 0 mm 1 mps 716 mmHg 89%
    01:00 +15°C° 0 mm 1 mps 716 mmHg 91%
    02:00 +14°C° 0 mm 1 mps 716 mmHg 92%
    03:00 +14°C° 0 mm 1 mps 715 mmHg 93%
    04:00 +14°C° 0 mm 1 mps 715 mmHg 94%
    05:00 +15°C° 0 mm 2 mps 715 mmHg 90%
    06:00 +17°C° 0 mm 2 mps 716 mmHg 86%
    07:00 +18°C° 0 mm 2 mps 716 mmHg 82%
    08:00 +19°C° 0 mm 3 mps 716 mmHg 80%
    09:00 +20°C° 0 mm 3 mps 716 mmHg 77%
    10:00 +21°C° 0 mm 3 mps 716 mmHg 74%
    11:00 +22°C° 0.1 mm 3 mps 716 mmHg 70%
    12:00 +22°C° 0.1 mm 3 mps 715 mmHg 67%
    13:00 +24°C° 0.1 mm 3 mps 715 mmHg 64%
    14:00 +24°C° 0.2 mm 3 mps 715 mmHg 65%
    15:00 +23°C° 0.2 mm 4 mps 715 mmHg 65%
    16:00 +23°C° 0.2 mm 4 mps 715 mmHg 66%
    17:00 +22°C° 0 mm 4 mps 714 mmHg 70%
    18:00 +21°C° 0 mm 3 mps 714 mmHg 74%
    19:00 +20°C° 0 mm 3 mps 714 mmHg 78%
    20:00 +19°C° 0 mm 3 mps 714 mmHg 81%
    21:00 +17°C° 0 mm 2 mps 714 mmHg 85%
    22:00 +16°C° 0 mm 2 mps 714 mmHg 88%
    23:00 +16°C° 0 mm 2 mps 714 mmHg 90%

    28 July, Sunday

    Time Temperature Precipitation Wind Pressure Humidity
    00:00 +15°C° 0 mm 2 mps 714 mmHg 92%
    01:00 +15°C° 0 mm 2 mps 714 mmHg 95%
    02:00 +15°C° 0 mm 2 mps 714 mmHg 96%
    03:00 +14°C° 0 mm 2 mps 714 mmHg 97%
    04:00 +14°C° 0 mm 2 mps 714 mmHg 98%
    05:00 +15°C° 0 mm 2 mps 714 mmHg 95%
    06:00 +16°C° 0 mm 2 mps 714 mmHg 92%
    07:00 +17°C° 0 mm 3 mps 714 mmHg 89%
    08:00 +18°C° 0 mm 3 mps 714 mmHg 84%
    09:00 +20°C° 0 mm 4 mps 714 mmHg 80%
    10:00 +21°C° 0 mm 4 mps 714 mmHg 75%
    11:00 +22°C° 0.1 mm 4 mps 714 mmHg 71%
    12:00 +23°C° 0.1 mm 4 mps 714 mmHg 67%
    13:00 +25°C° 0.1 mm 4 mps 714 mmHg 63%
    14:00 +25°C° 0.7 mm 4 mps 714 mmHg 65%
    15:00 +23°C° 0.7 mm 4 mps 713 mmHg 66%
    16:00 +23°C° 0.7 mm 4 mps 713 mmHg 67%
    17:00 +22°C° 0.5 mm 3 mps 713 mmHg 72%
    18:00 +21°C° 0.5 mm 3 mps 713 mmHg 77%
    19:00 +20°C° 0.5 mm 2 mps 713 mmHg 82%
    20:00 +20°C° 0.3 mm 1 mps 713 mmHg 84%
    21:00 +19°C° 0.3 mm 1 mps 713 mmHg 85%
    22:00 +18°C° 0.3 mm 1 mps 713 mmHg 87%
    23:00 +18°C° 0.1 mm 1 mps 713 mmHg 89%
    Show more